Time,TemperatureF,DewpointF,PressureIn,WindDirection,WindDirectionDegrees,WindSpeedMPH,WindSpeedGustMPH,Humidity,HourlyPrecipIn,Conditions,Clouds,dailyrainin,SoftwareType,DateUTC
2013-05-28 00:02:00,69.8,62.0,30.15,SSW,209,0.0,-999.0,75,-99.99,,,0.00,weatherlink.com 1.10,2013-05-28 05:02:00,
2013-05-28 00:17:00,69.7,62.0,30.14,SSW,209,0.0,-999.0,77,-99.99,,,0.00,weatherlink.com 1.10,2013-05-28 05:17:00,
2013-05-28 00:32:00,68.8,62.0,30.14,SSW,209,0.0,-999.0,78,-99.99,,,0.00,weatherlink.com 1.10,2013-05-28 05:32:00,
2013-05-28 00:47:00,68.5,61.0,30.13,SSW,209,0.0,-999.0,77,-99.99,,,0.00,weatherlink.com 1.10,2013-05-28 05:47:00,
2013-05-28 01:02:00,68.0,61.0,30.13,SSW,209,0.0,-999.0,79,-99.99,,,0.00,weatherlink.com 1.10,2013-05-28 06:02:00,
2013-05-28 01:17:00,67.5,62.0,30.13,SSW,209,0.0,-999.0,81,-99.99,,,0.00,weatherlink.com 1.10,2013-05-28 06:17:00,
2013-05-28 01:32:00,66.7,61.0,30.13,SSW,209,0.0,-999.0,82,-99.99,,,0.00,weatherlink.com 1.10,2013-05-28 06:32:00,
2013-05-28 01:47:00,66.0,61.0,30.13,SSW,209,0.0,-999.0,83,-99.99,,,0.00,weatherlink.com 1.10,2013-05-28 06:47:00,
2013-05-28 02:02:00,65.2,61.0,30.13,SSW,209,0.0,-999.0,86,-99.99,,,0.00,weatherlink.com 1.10,2013-05-28 07:02:00,
2013-05-28 02:17:00,64.5,61.0,30.13,SSW,209,0.0,-999.0,87,-99.99,,,0.00,weatherlink.com 1.10,2013-05-28 07:17:00,
2013-05-28 02:32:00,64.0,60.0,30.12,SSW,209,0.0,-999.0,88,-99.99,,,0.00,weatherlink.com 1.10,2013-05-28 07:32:00,
2013-05-28 02:47:00,63.8,60.0,30.12,SSW,209,0.0,-999.0,88,-99.99,,,0.00,weatherlink.com 1.10,2013-05-28 07:47:00,
2013-05-28 03:02:00,63.8,60.0,30.12,SSW,209,0.0,-999.0,87,-99.99,,,0.00,weatherlink.com 1.10,2013-05-28 08:02:00,
2013-05-28 03:17:00,65.0,60.0,30.13,SSW,209,0.0,-999.0,85,-99.99,,,0.00,weatherlink.com 1.10,2013-05-28 08:17:00,
2013-05-28 03:32:00,65.8,61.0,30.13,SSW,209,0.0,-999.0,83,-99.99,,,0.00,weatherlink.com 1.10,2013-05-28 08:32:00,
2013-05-28 03:47:00,65.3,60.0,30.14,SSW,209,0.0,-999.0,83,-99.99,,,0.00,weatherlink.com 1.10,2013-05-28 08:47:00,
2013-05-28 04:02:00,64.6,60.0,30.15,SSW,209,0.0,-999.0,84,-99.99,,,0.00,weatherlink.com 1.10,2013-05-28 09:02:00,
2013-05-28 04:17:00,64.0,60.0,30.15,SSW,209,0.0,-999.0,86,-99.99,,,0.00,weatherlink.com 1.10,2013-05-28 09:17:00,
2013-05-28 04:32:00,62.9,59.0,30.16,SSW,209,0.0,-999.0,88,-99.99,,,0.00,weatherlink.com 1.10,2013-05-28 09:32:00,
2013-05-28 04:47:00,62.6,59.0,30.16,SSW,209,0.0,-999.0,89,-99.99,,,0.00,weatherlink.com 1.10,2013-05-28 09:47:00,
2013-05-28 05:02:00,61.7,59.0,30.16,SSW,209,0.0,-999.0,90,-99.99,,,0.00,weatherlink.com 1.10,2013-05-28 10:02:00,
2013-05-28 05:17:00,61.3,59.0,30.16,SSW,209,0.0,-999.0,91,-99.99,,,0.00,weatherlink.com 1.10,2013-05-28 10:17:00,
2013-05-28 05:32:00,61.3,59.0,30.17,SSW,209,0.0,-999.0,92,-99.99,,,0.00,weatherlink.com 1.10,2013-05-28 10:32:00,
2013-05-28 05:48:00,61.2,59.0,30.18,SSW,195,0.0,-999.0,91,-99.99,,,0.00,weatherlink.com 1.10,2013-05-28 10:48:00,
2013-05-28 06:03:00,61.3,59.0,30.18,SSW,195,0.0,-999.0,92,-99.99,,,0.00,weatherlink.com 1.10,2013-05-28 11:03:00,
2013-05-28 06:18:00,62.5,60.0,30.17,SSW,195,0.0,-999.0,90,-99.99,,,0.00,weatherlink.com 1.10,2013-05-28 11:18:00,
2013-05-28 06:33:00,64.1,60.0,30.18,SSW,195,0.0,-999.0,87,-99.99,,,0.00,weatherlink.com 1.10,2013-05-28 11:33:00,
2013-05-28 06:48:00,65.6,60.0,30.18,SSW,201,0.0,-999.0,83,-99.99,,,0.00,weatherlink.com 1.10,2013-05-28 11:48:00,
2013-05-28 07:03:00,66.7,61.0,30.18,SSW,202,0.0,-999.0,81,-99.99,,,0.00,weatherlink.com 1.10,2013-05-28 12:03:00,
2013-05-28 07:18:00,67.0,61.0,30.19,SSW,202,0.0,-999.0,80,-99.99,,,0.00,weatherlink.com 1.10,2013-05-28 12:18:00,
2013-05-28 07:33:00,67.6,61.0,30.19,SSW,202,0.0,-999.0,80,-99.99,,,0.00,weatherlink.com 1.10,2013-05-28 12:33:00,
2013-05-28 07:48:00,68.3,62.0,30.19,SSW,192,0.0,-999.0,79,-99.99,,,0.00,weatherlink.com 1.10,2013-05-28 12:48:00,
2013-05-28 08:03:00,68.7,62.0,30.20,SSW,192,0.0,-999.0,78,-99.99,,,0.00,weatherlink.com 1.10,2013-05-28 13:03:00,
2013-05-28 08:18:00,69.9,62.0,30.19,SW,221,0.0,-999.0,77,-99.99,,,0.00,weatherlink.com 1.10,2013-05-28 13:18:00,
2013-05-28 08:33:00,70.4,62.0,30.20,SW,219,3.0,-999.0,75,-99.99,,,0.00,weatherlink.com 1.10,2013-05-28 13:33:00,
2013-05-28 08:48:00,72.1,63.0,30.20,SW,221,0.0,-999.0,73,-99.99,,,0.00,weatherlink.com 1.10,2013-05-28 13:48:00,
2013-05-28 09:18:00,73.2,61.0,30.20,SW,229,4.0,-999.0,66,-99.99,,,0.00,weatherlink.com 1.10,2013-05-28 14:18:00,
2013-05-28 09:33:00,74.1,60.0,30.20,SW,214,0.0,-999.0,62,-99.99,,,0.00,weatherlink.com 1.10,2013-05-28 14:33:00,
2013-05-28 09:48:00,74.8,60.0,30.20,South,174,0.0,-999.0,61,-99.99,,,0.00,weatherlink.com 1.10,2013-05-28 14:48:00,
2013-05-28 10:03:00,74.4,59.0,30.20,SSW,207,2.0,-999.0,59,-99.99,,,0.00,weatherlink.com 1.10,2013-05-28 15:03:00,
2013-05-28 10:18:00,75.7,61.0,30.20,SSE,163,0.0,-999.0,60,-99.99,,,0.00,weatherlink.com 1.10,2013-05-28 15:18:00,
2013-05-28 10:33:00,75.4,60.0,30.20,South,171,0.0,-999.0,59,-99.99,,,0.00,weatherlink.com 1.10,2013-05-28 15:33:00,
2013-05-28 10:48:00,76.6,62.0,30.20,SSW,197,2.0,-999.0,61,-99.99,,,0.00,weatherlink.com 1.10,2013-05-28 15:48:00,
2013-05-28 11:03:00,77.3,62.0,30.20,SSE,164,0.0,-999.0,59,-99.99,,,0.00,weatherlink.com 1.10,2013-05-28 16:03:00,
2013-05-28 11:18:00,78.1,62.0,30.19,SW,223,9.0,-999.0,59,-99.99,,,0.00,weatherlink.com 1.10,2013-05-28 16:18:00,
2013-05-28 11:33:00,79.0,63.0,30.19,SW,219,4.0,-999.0,58,-99.99,,,0.00,weatherlink.com 1.10,2013-05-28 16:33:00,
2013-05-28 11:48:00,79.5,63.0,30.18,SSW,196,10.0,-999.0,57,-99.99,,,0.00,weatherlink.com 1.10,2013-05-28 16:48:00,
2013-05-28 12:03:00,79.1,63.0,30.18,SSW,199,4.0,-999.0,58,-99.99,,,0.00,weatherlink.com 1.10,2013-05-28 17:03:00,
2013-05-28 12:18:00,79.6,63.0,30.18,SW,225,3.0,-999.0,58,-99.99,,,0.00,weatherlink.com 1.10,2013-05-28 17:18:00,
2013-05-28 12:48:00,81.6,64.0,30.17,SSW,207,4.0,-999.0,56,-99.99,,,0.00,weatherlink.com 1.10,2013-05-28 17:48:00,
2013-05-28 13:03:00,81.3,65.0,30.16,SW,215,8.0,-999.0,57,-99.99,,,0.00,weatherlink.com 1.10,2013-05-28 18:03:00,
2013-05-28 13:18:00,81.2,64.0,30.16,ESE,115,0.0,-999.0,56,-99.99,,,0.00,weatherlink.com 1.10,2013-05-28 18:18:00,
2013-05-28 13:33:00,82.8,64.0,30.16,SE,125,0.0,-999.0,53,-99.99,,,0.00,weatherlink.com 1.10,2013-05-28 18:33:00,
2013-05-28 13:48:00,83.1,64.0,30.15,South,172,5.0,-999.0,52,-99.99,,,0.00,weatherlink.com 1.10,2013-05-28 18:48:00,
2013-05-28 14:03:00,82.7,63.0,30.15,SSW,201,6.0,-999.0,52,-99.99,,,0.00,weatherlink.com 1.10,2013-05-28 19:03:00,
2013-05-28 14:18:00,81.8,64.0,30.15,SW,217,12.0,-999.0,55,-99.99,,,0.00,weatherlink.com 1.10,2013-05-28 19:18:00,
2013-05-28 14:33:00,82.6,65.0,30.15,SW,221,11.0,-999.0,55,-99.99,,,0.00,weatherlink.com 1.10,2013-05-28 19:33:00,
2013-05-28 14:48:00,80.9,63.0,30.15,SW,228,3.0,-999.0,55,-99.99,,,0.00,weatherlink.com 1.10,2013-05-28 19:48:00,
2013-05-28 15:03:00,81.7,64.0,30.15,SW,214,4.0,-999.0,55,-99.99,,,0.00,weatherlink.com 1.10,2013-05-28 20:03:00,
2013-05-28 15:18:00,83.1,64.0,30.15,SSW,207,5.0,-999.0,53,-99.99,,,0.00,weatherlink.com 1.10,2013-05-28 20:18:00,
2013-05-28 15:33:00,82.8,64.0,30.14,SE,146,0.0,-999.0,54,-99.99,,,0.00,weatherlink.com 1.10,2013-05-28 20:33:00,
2013-05-28 15:48:00,82.4,64.0,30.14,SSW,202,6.0,-999.0,54,-99.99,,,0.00,weatherlink.com 1.10,2013-05-28 20:48:00,
2013-05-28 16:03:00,84.5,65.0,30.13,SE,142,0.0,-999.0,52,-99.99,,,0.00,weatherlink.com 1.10,2013-05-28 21:03:00,
2013-05-28 16:18:00,83.1,64.0,30.13,SSE,153,1.0,-999.0,53,-99.99,,,0.00,weatherlink.com 1.10,2013-05-28 21:18:00,
2013-05-28 16:33:00,83.2,65.0,30.13,SSW,209,0.0,-999.0,54,-99.99,,,0.00,weatherlink.com 1.10,2013-05-28 21:33:00,
2013-05-28 16:48:00,82.9,66.0,30.13,ESE,121,0.0,-999.0,56,-99.99,,,0.00,weatherlink.com 1.10,2013-05-28 21:48:00,
2013-05-28 17:04:00,81.7,65.0,30.12,SSE,161,0.0,-999.0,57,-99.99,,,0.00,weatherlink.com 1.10,2013-05-28 22:04:00,
2013-05-28 17:19:00,82.9,66.0,30.12,SSE,168,5.0,-999.0,56,-99.99,,,0.00,weatherlink.com 1.10,2013-05-28 22:19:00,
2013-05-28 17:34:00,82.6,65.0,30.12,SSW,201,5.0,-999.0,56,-99.99,,,0.00,weatherlink.com 1.10,2013-05-28 22:34:00,
2013-05-28 17:49:00,83.3,66.0,30.11,SSW,206,4.0,-999.0,56,-99.99,,,0.00,weatherlink.com 1.10,2013-05-28 22:49:00,
2013-05-28 18:04:00,82.6,65.0,30.11,South,188,2.0,-999.0,56,-99.99,,,0.00,weatherlink.com 1.10,2013-05-28 23:04:00,
2013-05-28 18:19:00,83.3,65.0,30.10,South,185,0.0,-999.0,55,-99.99,,,0.00,weatherlink.com 1.10,2013-05-28 23:19:00,
2013-05-28 18:34:00,83.5,66.0,30.10,South,190,0.0,-999.0,56,-99.99,,,0.00,weatherlink.com 1.10,2013-05-28 23:34:00,
2013-05-28 18:49:00,82.6,66.0,30.11,SSW,212,0.0,-999.0,57,-99.99,,,0.00,weatherlink.com 1.10,2013-05-28 23:49:00,
2013-05-28 19:04:00,82.1,66.0,30.11,SSW,212,0.0,-999.0,58,-99.99,,,0.00,weatherlink.com 1.10,2013-05-29 00:04:00,
2013-05-28 19:19:00,81.2,65.0,30.11,SSW,212,0.0,-999.0,59,-99.99,,,0.00,weatherlink.com 1.10,2013-05-29 00:19:00,
2013-05-28 19:34:00,79.8,66.0,30.11,SSW,212,0.0,-999.0,63,-99.99,,,0.00,weatherlink.com 1.10,2013-05-29 00:34:00,
2013-05-28 19:49:00,78.5,66.0,30.11,SSW,212,0.0,-999.0,65,-99.99,,,0.00,weatherlink.com 1.10,2013-05-29 00:49:00,
2013-05-28 20:04:00,76.6,66.0,30.12,SSW,212,0.0,-999.0,70,-99.99,,,0.00,weatherlink.com 1.10,2013-05-29 01:04:00,
2013-05-28 20:19:00,75.0,66.0,30.12,SSW,212,0.0,-999.0,73,-99.99,,,0.00,weatherlink.com 1.10,2013-05-29 01:19:00,
2013-05-28 20:34:00,74.1,65.0,30.12,SSW,212,0.0,-999.0,74,-99.99,,,0.00,weatherlink.com 1.10,2013-05-29 01:34:00,
2013-05-28 20:49:00,73.6,65.0,30.12,SSW,212,0.0,-999.0,75,-99.99,,,0.00,weatherlink.com 1.10,2013-05-29 01:49:00,
2013-05-28 21:04:00,73.2,65.0,30.13,SSW,212,0.0,-999.0,75,-99.99,,,0.00,weatherlink.com 1.10,2013-05-29 02:04:00,
2013-05-28 21:19:00,72.9,65.0,30.13,SSW,212,0.0,-999.0,75,-99.99,,,0.00,weatherlink.com 1.10,2013-05-29 02:19:00,
2013-05-28 21:35:00,72.5,64.0,30.13,SSW,212,0.0,-999.0,75,-99.99,,,0.00,weatherlink.com 1.10,2013-05-29 02:35:00,
2013-05-28 21:49:00,72.4,64.0,30.13,SSW,212,0.0,-999.0,75,-99.99,,,0.00,weatherlink.com 1.10,2013-05-29 02:49:00,
2013-05-28 22:04:00,72.6,64.0,30.13,SSE,150,0.0,-999.0,75,-99.99,,,0.00,weatherlink.com 1.10,2013-05-29 03:04:00,
2013-05-28 22:19:00,72.8,64.0,30.13,SSE,154,0.0,-999.0,74,-99.99,,,0.00,weatherlink.com 1.10,2013-05-29 03:19:00,
2013-05-28 22:34:00,72.9,63.0,30.13,SSE,161,0.0,-999.0,72,-99.99,,,0.00,weatherlink.com 1.10,2013-05-29 03:34:00,
2013-05-28 22:49:00,72.8,63.0,30.13,SSE,155,0.0,-999.0,72,-99.99,,,0.00,weatherlink.com 1.10,2013-05-29 03:49:00,
2013-05-28 23:04:00,72.7,62.0,30.13,SSE,164,0.0,-999.0,70,-99.99,,,0.00,weatherlink.com 1.10,2013-05-29 04:04:00,
2013-05-28 23:19:00,72.6,62.0,30.13,South,169,0.0,-999.0,69,-99.99,,,0.00,weatherlink.com 1.10,2013-05-29 04:19:00,
2013-05-28 23:34:00,72.3,62.0,30.13,SE,139,0.0,-999.0,70,-99.99,,,0.00,weatherlink.com 1.10,2013-05-29 04:34:00,
2013-05-28 23:49:00,71.8,61.0,30.12,SSE,167,0.0,-999.0,69,-99.99,,,0.00,weatherlink.com 1.10,2013-05-29 04:49:00,